Location: Ferchesar
(52.6477°N, 12.4298°E)
Time: 18:06:11
(UTC+01:00)

Vanguard 1 Rocket - Pass Details

Date: 11 December 2021
Orbit: 651 x 4224 km, 34.3° (Epoch: 16 January)

Event Time Altitude Azimuth Distance (km) Brightness Sun altitude
Exits shadow 01:34:23 17° 119° (ESE) 4,329 10.8 -55.7°
Drops below altitude 10° 01:38:16 10° 108° (ESE) 5,331 11.4 -55.3°
Sets 01:44:42 0° 98° (E) 7,020 12.2 -54.6°
